Index of /20260428/WXO-DD/model_gdps/15km/00/048
Name Last modified Size Description
Parent Directory -
20260428T00Z_MSC_GDPS_AbsoluteVorticity_IsbL-0200_LatLon0.15_PT048H.grib2 2026-04-28 04:09 1.2M
20260428T00Z_MSC_GDPS_AbsoluteVorticity_IsbL-0250_LatLon0.15_PT048H.grib2 2026-04-28 04:09 1.3M
20260428T00Z_MSC_GDPS_AbsoluteVorticity_IsbL-0500_LatLon0.15_PT048H.grib2 2026-04-28 04:09 1.5M
20260428T00Z_MSC_GDPS_AbsoluteVorticity_IsbL-0700_LatLon0.15_PT048H.grib2 2026-04-28 04:09 1.3M
20260428T00Z_MSC_GDPS_AbsoluteVorticity_IsbL-0850_LatLon0.15_PT048H.grib2 2026-04-28 04:09 1.6M
20260428T00Z_MSC_GDPS_AirTemp-Max_AGL-2m_LatLon0.15_PT048H.grib2 2026-04-28 04:09 748K
20260428T00Z_MSC_GDPS_AirTemp-Min_AGL-2m_LatLon0.15_PT048H.grib2 2026-04-28 04:09 798K
20260428T00Z_MSC_GDPS_AirTemp_AGL-120m_LatLon0.15_PT048H.grib2 2026-04-28 04:09 912K
20260428T00Z_MSC_GDPS_AirTemp_AGL-2m_LatLon0.15_PT048H.grib2 2026-04-28 04:09 1.0M
20260428T00Z_MSC_GDPS_AirTemp_AGL-40m_LatLon0.15_PT048H.grib2 2026-04-28 04:09 817K
20260428T00Z_MSC_GDPS_AirTemp_AGL-80m_LatLon0.15_PT048H.grib2 2026-04-28 04:09 923K
20260428T00Z_MSC_GDPS_AirTemp_IsbL-0001_LatLon0.15_PT048H.grib2 2026-04-28 04:09 713K
20260428T00Z_MSC_GDPS_AirTemp_IsbL-0005_LatLon0.15_PT048H.grib2 2026-04-28 04:09 688K
20260428T00Z_MSC_GDPS_AirTemp_IsbL-0010_LatLon0.15_PT048H.grib2 2026-04-28 04:09 760K
20260428T00Z_MSC_GDPS_AirTemp_IsbL-0020_LatLon0.15_PT048H.grib2 2026-04-28 04:09 786K
20260428T00Z_MSC_GDPS_AirTemp_IsbL-0030_LatLon0.15_PT048H.grib2 2026-04-28 04:09 753K
20260428T00Z_MSC_GDPS_AirTemp_IsbL-0050_LatLon0.15_PT048H.grib2 2026-04-28 04:09 809K
20260428T00Z_MSC_GDPS_AirTemp_IsbL-0100_LatLon0.15_PT048H.grib2 2026-04-28 04:09 964K
20260428T00Z_MSC_GDPS_AirTemp_IsbL-0150_LatLon0.15_PT048H.grib2 2026-04-28 04:09 1.0M
20260428T00Z_MSC_GDPS_AirTemp_IsbL-0175_LatLon0.15_PT048H.grib2 2026-04-28 04:09 964K
20260428T00Z_MSC_GDPS_AirTemp_IsbL-0200_LatLon0.15_PT048H.grib2 2026-04-28 04:09 1.0M
20260428T00Z_MSC_GDPS_AirTemp_IsbL-0225_LatLon0.15_PT048H.grib2 2026-04-28 04:09 1.0M
20260428T00Z_MSC_GDPS_AirTemp_IsbL-0250_LatLon0.15_PT048H.grib2 2026-04-28 04:09 1.0M
20260428T00Z_MSC_GDPS_AirTemp_IsbL-0275_LatLon0.15_PT048H.grib2 2026-04-28 04:09 1.0M
20260428T00Z_MSC_GDPS_AirTemp_IsbL-0300_LatLon0.15_PT048H.grib2 2026-04-28 04:09 1.0M
20260428T00Z_MSC_GDPS_AirTemp_IsbL-0350_LatLon0.15_PT048H.grib2 2026-04-28 04:09 930K
20260428T00Z_MSC_GDPS_AirTemp_IsbL-0400_LatLon0.15_PT048H.grib2 2026-04-28 04:09 939K
20260428T00Z_MSC_GDPS_AirTemp_IsbL-0450_LatLon0.15_PT048H.grib2 2026-04-28 04:09 961K
20260428T00Z_MSC_GDPS_AirTemp_IsbL-0500_LatLon0.15_PT048H.grib2 2026-04-28 04:09 1.0M
20260428T00Z_MSC_GDPS_AirTemp_IsbL-0550_LatLon0.15_PT048H.grib2 2026-04-28 04:09 803K
20260428T00Z_MSC_GDPS_AirTemp_IsbL-0600_LatLon0.15_PT048H.grib2 2026-04-28 04:09 894K
20260428T00Z_MSC_GDPS_AirTemp_IsbL-0650_LatLon0.15_PT048H.grib2 2026-04-28 04:09 919K
20260428T00Z_MSC_GDPS_AirTemp_IsbL-0700_LatLon0.15_PT048H.grib2 2026-04-28 04:09 949K
20260428T00Z_MSC_GDPS_AirTemp_IsbL-0750_LatLon0.15_PT048H.grib2 2026-04-28 04:09 1.0M
20260428T00Z_MSC_GDPS_AirTemp_IsbL-0800_LatLon0.15_PT048H.grib2 2026-04-28 04:09 1.1M
20260428T00Z_MSC_GDPS_AirTemp_IsbL-0850_LatLon0.15_PT048H.grib2 2026-04-28 04:09 1.1M
20260428T00Z_MSC_GDPS_AirTemp_IsbL-0875_LatLon0.15_PT048H.grib2 2026-04-28 04:09 1.1M
20260428T00Z_MSC_GDPS_AirTemp_IsbL-0900_LatLon0.15_PT048H.grib2 2026-04-28 04:09 1.1M
20260428T00Z_MSC_GDPS_AirTemp_IsbL-0925_LatLon0.15_PT048H.grib2 2026-04-28 04:09 1.1M
20260428T00Z_MSC_GDPS_AirTemp_IsbL-0950_LatLon0.15_PT048H.grib2 2026-04-28 04:09 1.1M
20260428T00Z_MSC_GDPS_AirTemp_IsbL-0970_LatLon0.15_PT048H.grib2 2026-04-28 04:09 1.2M
20260428T00Z_MSC_GDPS_AirTemp_IsbL-0985_LatLon0.15_PT048H.grib2 2026-04-28 04:09 1.1M
20260428T00Z_MSC_GDPS_AirTemp_IsbL-1000_LatLon0.15_PT048H.grib2 2026-04-28 04:09 1.1M
20260428T00Z_MSC_GDPS_AirTemp_IsbL-1015_LatLon0.15_PT048H.grib2 2026-04-28 04:09 1.1M
20260428T00Z_MSC_GDPS_Albedo_Sfc_LatLon0.15_PT048H.grib2 2026-04-28 04:09 243K
20260428T00Z_MSC_GDPS_CAPE_Sfc_LatLon0.15_PT048H.grib2 2026-04-28 04:09 3.9M
20260428T00Z_MSC_GDPS_CIN_Sfc_LatLon0.15_PT048H.grib2 2026-04-28 04:09 2.9M
20260428T00Z_MSC_GDPS_CloudWater_EAtm_LatLon0.15_PT048H.grib2 2026-04-28 04:09 531K
20260428T00Z_MSC_GDPS_ConvectivePrecip-Accum_Sfc_LatLon0.15_PT048H.grib2 2026-04-28 04:09 3.0M
20260428T00Z_MSC_GDPS_DewPointDepression_AGL-2m_LatLon0.15_PT048H.grib2 2026-04-28 04:09 757K
20260428T00Z_MSC_GDPS_DewPointDepression_IsbL-0010_LatLon0.15_PT048H.grib2 2026-04-28 04:09 54K
20260428T00Z_MSC_GDPS_DewPointDepression_IsbL-0020_LatLon0.15_PT048H.grib2 2026-04-28 04:09 64K
20260428T00Z_MSC_GDPS_DewPointDepression_IsbL-0030_LatLon0.15_PT048H.grib2 2026-04-28 04:09 72K
20260428T00Z_MSC_GDPS_DewPointDepression_IsbL-0050_LatLon0.15_PT048H.grib2 2026-04-28 04:09 368K
20260428T00Z_MSC_GDPS_DewPointDepression_IsbL-0100_LatLon0.15_PT048H.grib2 2026-04-28 04:09 418K
20260428T00Z_MSC_GDPS_DewPointDepression_IsbL-0150_LatLon0.15_PT048H.grib2 2026-04-28 04:09 457K
20260428T00Z_MSC_GDPS_DewPointDepression_IsbL-0175_LatLon0.15_PT048H.grib2 2026-04-28 04:09 560K
20260428T00Z_MSC_GDPS_DewPointDepression_IsbL-0200_LatLon0.15_PT048H.grib2 2026-04-28 04:09 678K
20260428T00Z_MSC_GDPS_DewPointDepression_IsbL-0225_LatLon0.15_PT048H.grib2 2026-04-28 04:09 789K
20260428T00Z_MSC_GDPS_DewPointDepression_IsbL-0250_LatLon0.15_PT048H.grib2 2026-04-28 04:09 871K
20260428T00Z_MSC_GDPS_DewPointDepression_IsbL-0275_LatLon0.15_PT048H.grib2 2026-04-28 04:09 886K
20260428T00Z_MSC_GDPS_DewPointDepression_IsbL-0300_LatLon0.15_PT048H.grib2 2026-04-28 04:09 926K
20260428T00Z_MSC_GDPS_DewPointDepression_IsbL-0350_LatLon0.15_PT048H.grib2 2026-04-28 04:09 951K
20260428T00Z_MSC_GDPS_DewPointDepression_IsbL-0400_LatLon0.15_PT048H.grib2 2026-04-28 04:09 1.0M
20260428T00Z_MSC_GDPS_DewPointDepression_IsbL-0450_LatLon0.15_PT048H.grib2 2026-04-28 04:09 1.0M
20260428T00Z_MSC_GDPS_DewPointDepression_IsbL-0500_LatLon0.15_PT048H.grib2 2026-04-28 04:09 1.0M
20260428T00Z_MSC_GDPS_DewPointDepression_IsbL-0550_LatLon0.15_PT048H.grib2 2026-04-28 04:09 1.0M
20260428T00Z_MSC_GDPS_DewPointDepression_IsbL-0600_LatLon0.15_PT048H.grib2 2026-04-28 04:09 1.0M
20260428T00Z_MSC_GDPS_DewPointDepression_IsbL-0650_LatLon0.15_PT048H.grib2 2026-04-28 04:09 1.0M
20260428T00Z_MSC_GDPS_DewPointDepression_IsbL-0700_LatLon0.15_PT048H.grib2 2026-04-28 04:09 1.1M
20260428T00Z_MSC_GDPS_DewPointDepression_IsbL-0750_LatLon0.15_PT048H.grib2 2026-04-28 04:09 1.1M
20260428T00Z_MSC_GDPS_DewPointDepression_IsbL-0800_LatLon0.15_PT048H.grib2 2026-04-28 04:09 1.1M
20260428T00Z_MSC_GDPS_DewPointDepression_IsbL-0850_LatLon0.15_PT048H.grib2 2026-04-28 04:09 1.1M
20260428T00Z_MSC_GDPS_DewPointDepression_IsbL-0875_LatLon0.15_PT048H.grib2 2026-04-28 04:09 1.1M
20260428T00Z_MSC_GDPS_DewPointDepression_IsbL-0900_LatLon0.15_PT048H.grib2 2026-04-28 04:09 1.0M
20260428T00Z_MSC_GDPS_DewPointDepression_IsbL-0925_LatLon0.15_PT048H.grib2 2026-04-28 04:09 1.0M
20260428T00Z_MSC_GDPS_DewPointDepression_IsbL-0950_LatLon0.15_PT048H.grib2 2026-04-28 04:09 1.0M
20260428T00Z_MSC_GDPS_DewPointDepression_IsbL-0970_LatLon0.15_PT048H.grib2 2026-04-28 04:09 1.0M
20260428T00Z_MSC_GDPS_DewPointDepression_IsbL-0985_LatLon0.15_PT048H.grib2 2026-04-28 04:09 1.0M
20260428T00Z_MSC_GDPS_DewPointDepression_IsbL-1000_LatLon0.15_PT048H.grib2 2026-04-28 04:09 970K
20260428T00Z_MSC_GDPS_DewPointDepression_IsbL-1015_LatLon0.15_PT048H.grib2 2026-04-28 04:09 909K
20260428T00Z_MSC_GDPS_DewPoint_AGL-2m_LatLon0.15_PT048H.grib2 2026-04-28 04:09 603K
20260428T00Z_MSC_GDPS_DownwardLongwaveRadiationFlux-Accum_Sfc_LatLon0.15_PT048H.grib2 2026-04-28 04:09 784K
20260428T00Z_MSC_GDPS_DownwardShortwaveRadiationFlux-Accum_NTAtm_LatLon0.15_PT048H.grib2 2026-04-28 04:09 225K
20260428T00Z_MSC_GDPS_DownwardShortwaveRadiationFlux-Accum_Sfc_LatLon0.15_PT048H.grib2 2026-04-28 04:09 1.0M
20260428T00Z_MSC_GDPS_FreezingRain-Accum12h_Sfc_LatLon0.15_PT048H.grib2 2026-04-28 04:09 128K
20260428T00Z_MSC_GDPS_FreezingRain-Accum1h_Sfc_LatLon0.15_PT048H.grib2 2026-04-28 04:09 46K
20260428T00Z_MSC_GDPS_FreezingRain-Accum24h_Sfc_LatLon0.15_PT048H.grib2 2026-04-28 04:09 175K
20260428T00Z_MSC_GDPS_FreezingRain-Accum3h_Sfc_LatLon0.15_PT048H.grib2 2026-04-28 04:09 62K
20260428T00Z_MSC_GDPS_FreezingRain-Accum6h_Sfc_LatLon0.15_PT048H.grib2 2026-04-28 04:09 88K
20260428T00Z_MSC_GDPS_FreezingRain-Accum_Sfc_LatLon0.15_PT048H.grib2 2026-04-28 04:09 277K
20260428T00Z_MSC_GDPS_GeopotentialHeight_IsbL-0001_LatLon0.15_PT048H.grib2 2026-04-28 04:09 436K
20260428T00Z_MSC_GDPS_GeopotentialHeight_IsbL-0005_LatLon0.15_PT048H.grib2 2026-04-28 04:09 492K
20260428T00Z_MSC_GDPS_GeopotentialHeight_IsbL-0010_LatLon0.15_PT048H.grib2 2026-04-28 04:09 476K
20260428T00Z_MSC_GDPS_GeopotentialHeight_IsbL-0020_LatLon0.15_PT048H.grib2 2026-04-28 04:09 417K
20260428T00Z_MSC_GDPS_GeopotentialHeight_IsbL-0030_LatLon0.15_PT048H.grib2 2026-04-28 04:09 576K
20260428T00Z_MSC_GDPS_GeopotentialHeight_IsbL-0050_LatLon0.15_PT048H.grib2 2026-04-28 04:09 579K
20260428T00Z_MSC_GDPS_GeopotentialHeight_IsbL-0100_LatLon0.15_PT048H.grib2 2026-04-28 04:09 614K
20260428T00Z_MSC_GDPS_GeopotentialHeight_IsbL-0150_LatLon0.15_PT048H.grib2 2026-04-28 04:09 634K
20260428T00Z_MSC_GDPS_GeopotentialHeight_IsbL-0175_LatLon0.15_PT048H.grib2 2026-04-28 04:09 638K
20260428T00Z_MSC_GDPS_GeopotentialHeight_IsbL-0200_LatLon0.15_PT048H.grib2 2026-04-28 04:09 643K
20260428T00Z_MSC_GDPS_GeopotentialHeight_IsbL-0225_LatLon0.15_PT048H.grib2 2026-04-28 04:09 646K
20260428T00Z_MSC_GDPS_GeopotentialHeight_IsbL-0250_LatLon0.15_PT048H.grib2 2026-04-28 04:09 649K
20260428T00Z_MSC_GDPS_GeopotentialHeight_IsbL-0275_LatLon0.15_PT048H.grib2 2026-04-28 04:09 647K
20260428T00Z_MSC_GDPS_GeopotentialHeight_IsbL-0300_LatLon0.15_PT048H.grib2 2026-04-28 04:09 639K
20260428T00Z_MSC_GDPS_GeopotentialHeight_IsbL-0350_LatLon0.15_PT048H.grib2 2026-04-28 04:09 637K
20260428T00Z_MSC_GDPS_GeopotentialHeight_IsbL-0400_LatLon0.15_PT048H.grib2 2026-04-28 04:09 627K
20260428T00Z_MSC_GDPS_GeopotentialHeight_IsbL-0450_LatLon0.15_PT048H.grib2 2026-04-28 04:09 619K
20260428T00Z_MSC_GDPS_GeopotentialHeight_IsbL-0500_LatLon0.15_PT048H.grib2 2026-04-28 04:09 608K
20260428T00Z_MSC_GDPS_GeopotentialHeight_IsbL-0550_LatLon0.15_PT048H.grib2 2026-04-28 04:09 531K
20260428T00Z_MSC_GDPS_GeopotentialHeight_IsbL-0600_LatLon0.15_PT048H.grib2 2026-04-28 04:09 524K
20260428T00Z_MSC_GDPS_GeopotentialHeight_IsbL-0650_LatLon0.15_PT048H.grib2 2026-04-28 04:09 687K
20260428T00Z_MSC_GDPS_GeopotentialHeight_IsbL-0700_LatLon0.15_PT048H.grib2 2026-04-28 04:09 682K
20260428T00Z_MSC_GDPS_GeopotentialHeight_IsbL-0750_LatLon0.15_PT048H.grib2 2026-04-28 04:09 690K
20260428T00Z_MSC_GDPS_GeopotentialHeight_IsbL-0800_LatLon0.15_PT048H.grib2 2026-04-28 04:09 699K
20260428T00Z_MSC_GDPS_GeopotentialHeight_IsbL-0850_LatLon0.15_PT048H.grib2 2026-04-28 04:09 709K
20260428T00Z_MSC_GDPS_GeopotentialHeight_IsbL-0875_LatLon0.15_PT048H.grib2 2026-04-28 04:09 714K
20260428T00Z_MSC_GDPS_GeopotentialHeight_IsbL-0900_LatLon0.15_PT048H.grib2 2026-04-28 04:09 722K
20260428T00Z_MSC_GDPS_GeopotentialHeight_IsbL-0925_LatLon0.15_PT048H.grib2 2026-04-28 04:09 728K
20260428T00Z_MSC_GDPS_GeopotentialHeight_IsbL-0950_LatLon0.15_PT048H.grib2 2026-04-28 04:09 735K
20260428T00Z_MSC_GDPS_GeopotentialHeight_IsbL-0970_LatLon0.15_PT048H.grib2 2026-04-28 04:09 746K
20260428T00Z_MSC_GDPS_GeopotentialHeight_IsbL-0985_LatLon0.15_PT048H.grib2 2026-04-28 04:09 762K
20260428T00Z_MSC_GDPS_GeopotentialHeight_IsbL-1000_LatLon0.15_PT048H.grib2 2026-04-28 04:09 784K
20260428T00Z_MSC_GDPS_GeopotentialHeight_IsbL-1015_LatLon0.15_PT048H.grib2 2026-04-28 04:09 807K
20260428T00Z_MSC_GDPS_Humidex_Sfc_LatLon0.15_PT048H.grib2 2026-04-28 04:09 5.3M
20260428T00Z_MSC_GDPS_IcePellets-Accum12h_Sfc_LatLon0.15_PT048H.grib2 2026-04-28 04:09 18K
20260428T00Z_MSC_GDPS_IcePellets-Accum1h_Sfc_LatLon0.15_PT048H.grib2 2026-04-28 04:09 9.1K
20260428T00Z_MSC_GDPS_IcePellets-Accum24h_Sfc_LatLon0.15_PT048H.grib2 2026-04-28 04:09 34K
20260428T00Z_MSC_GDPS_IcePellets-Accum3h_Sfc_LatLon0.15_PT048H.grib2 2026-04-28 04:09 10K
20260428T00Z_MSC_GDPS_IcePellets-Accum6h_Sfc_LatLon0.15_PT048H.grib2 2026-04-28 04:09 12K
20260428T00Z_MSC_GDPS_IcePellets-Accum_Sfc_LatLon0.15_PT048H.grib2 2026-04-28 04:09 62K
20260428T00Z_MSC_GDPS_KIndex_Sfc_LatLon0.15_PT048H.grib2 2026-04-28 04:09 6.5M
20260428T00Z_MSC_GDPS_LatentHeatNetFlux_Sfc_LatLon0.15_PT048H.grib2 2026-04-28 04:09 857K
20260428T00Z_MSC_GDPS_LiftedIndex-MU-VT_IsbL-0500_LatLon0.15_PT048H.grib2 2026-04-28 04:09 5.3M
20260428T00Z_MSC_GDPS_NetLongwaveRadiationFlux-Accum_Sfc_LatLon0.15_PT048H.grib2 2026-04-28 04:09 1.1M
20260428T00Z_MSC_GDPS_NetShortwaveRadiationFlux-Accum_Sfc_LatLon0.15_PT048H.grib2 2026-04-28 04:09 1.0M
20260428T00Z_MSC_GDPS_O3MixingRatio_LatLon0.15_PT048H.grib2 2026-04-28 04:52 2.0M
20260428T00Z_MSC_GDPS_O3_EAtm_LatLon0.15_PT048H.grib2 2026-04-28 04:52 2.5M
20260428T00Z_MSC_GDPS_PlanetaryBoundaryLayerHeight_Sfc_LatLon0.15_PT048H.grib2 2026-04-28 04:09 2.4M
20260428T00Z_MSC_GDPS_Precip-Accum12h_Sfc_LatLon0.15_PT048H.grib2 2026-04-28 04:09 4.4M
20260428T00Z_MSC_GDPS_Precip-Accum1h_Sfc_LatLon0.15_PT048H.grib2 2026-04-28 04:09 3.3M
20260428T00Z_MSC_GDPS_Precip-Accum24h_Sfc_LatLon0.15_PT048H.grib2 2026-04-28 04:09 4.6M
20260428T00Z_MSC_GDPS_Precip-Accum3h_Sfc_LatLon0.15_PT048H.grib2 2026-04-28 04:09 3.5M
20260428T00Z_MSC_GDPS_Precip-Accum6h_Sfc_LatLon0.15_PT048H.grib2 2026-04-28 04:09 3.9M
20260428T00Z_MSC_GDPS_Precip-Accum_Sfc_LatLon0.15_PT048H.grib2 2026-04-28 04:09 4.9M
20260428T00Z_MSC_GDPS_PrecipRate_Sfc_LatLon0.15_PT048H.grib2 2026-04-28 04:09 3.0M
20260428T00Z_MSC_GDPS_PrecipType-Instant_Sfc_LatLon0.15_PT048H.grib2 2026-04-28 04:09 1.6M
20260428T00Z_MSC_GDPS_Pressure_MSL_LatLon0.15_PT048H.grib2 2026-04-28 04:09 818K
20260428T00Z_MSC_GDPS_Pressure_PVU-1.5_LatLon0.15_PT048H.grib2 2026-04-28 04:09 5.8M
20260428T00Z_MSC_GDPS_Pressure_PVU-1_LatLon0.15_PT048H.grib2 2026-04-28 04:09 6.0M
20260428T00Z_MSC_GDPS_Pressure_PVU-2_LatLon0.15_PT048H.grib2 2026-04-28 04:09 5.6M
20260428T00Z_MSC_GDPS_Pressure_Sfc_LatLon0.15_PT048H.grib2 2026-04-28 04:09 1.1M
20260428T00Z_MSC_GDPS_RadiativeTemp_Sfc_LatLon0.15_PT048H.grib2 2026-04-28 04:09 651K
20260428T00Z_MSC_GDPS_Rain-Accum12h_Sfc_LatLon0.15_PT048H.grib2 2026-04-28 04:09 3.0M
20260428T00Z_MSC_GDPS_Rain-Accum1h_Sfc_LatLon0.15_PT048H.grib2 2026-04-28 04:09 1.7M
20260428T00Z_MSC_GDPS_Rain-Accum24h_Sfc_LatLon0.15_PT048H.grib2 2026-04-28 04:09 3.3M
20260428T00Z_MSC_GDPS_Rain-Accum3h_Sfc_LatLon0.15_PT048H.grib2 2026-04-28 04:09 1.9M
20260428T00Z_MSC_GDPS_Rain-Accum6h_Sfc_LatLon0.15_PT048H.grib2 2026-04-28 04:09 2.5M
20260428T00Z_MSC_GDPS_Rain-Accum_Sfc_LatLon0.15_PT048H.grib2 2026-04-28 04:09 3.7M
20260428T00Z_MSC_GDPS_RelativeHumidity_AGL-2m_LatLon0.15_PT048H.grib2 2026-04-28 04:09 1.0M
20260428T00Z_MSC_GDPS_RelativeHumidity_IsbL-0010_LatLon0.15_PT048H.grib2 2026-04-28 04:09 192K
20260428T00Z_MSC_GDPS_RelativeHumidity_IsbL-0020_LatLon0.15_PT048H.grib2 2026-04-28 04:09 241K
20260428T00Z_MSC_GDPS_RelativeHumidity_IsbL-0030_LatLon0.15_PT048H.grib2 2026-04-28 04:09 267K
20260428T00Z_MSC_GDPS_RelativeHumidity_IsbL-0050_LatLon0.15_PT048H.grib2 2026-04-28 04:09 421K
20260428T00Z_MSC_GDPS_RelativeHumidity_IsbL-0100_LatLon0.15_PT048H.grib2 2026-04-28 04:09 514K
20260428T00Z_MSC_GDPS_RelativeHumidity_IsbL-0150_LatLon0.15_PT048H.grib2 2026-04-28 04:09 657K
20260428T00Z_MSC_GDPS_RelativeHumidity_IsbL-0175_LatLon0.15_PT048H.grib2 2026-04-28 04:09 588K
20260428T00Z_MSC_GDPS_RelativeHumidity_IsbL-0200_LatLon0.15_PT048H.grib2 2026-04-28 04:09 700K
20260428T00Z_MSC_GDPS_RelativeHumidity_IsbL-0225_LatLon0.15_PT048H.grib2 2026-04-28 04:09 785K
20260428T00Z_MSC_GDPS_RelativeHumidity_IsbL-0250_LatLon0.15_PT048H.grib2 2026-04-28 04:09 863K
20260428T00Z_MSC_GDPS_RelativeHumidity_IsbL-0275_LatLon0.15_PT048H.grib2 2026-04-28 04:09 882K
20260428T00Z_MSC_GDPS_RelativeHumidity_IsbL-0300_LatLon0.15_PT048H.grib2 2026-04-28 04:09 924K
20260428T00Z_MSC_GDPS_RelativeHumidity_IsbL-0350_LatLon0.15_PT048H.grib2 2026-04-28 04:09 948K
20260428T00Z_MSC_GDPS_RelativeHumidity_IsbL-0400_LatLon0.15_PT048H.grib2 2026-04-28 04:09 970K
20260428T00Z_MSC_GDPS_RelativeHumidity_IsbL-0450_LatLon0.15_PT048H.grib2 2026-04-28 04:09 1.0M
20260428T00Z_MSC_GDPS_RelativeHumidity_IsbL-0500_LatLon0.15_PT048H.grib2 2026-04-28 04:09 1.0M
20260428T00Z_MSC_GDPS_RelativeHumidity_IsbL-0550_LatLon0.15_PT048H.grib2 2026-04-28 04:09 1.0M
20260428T00Z_MSC_GDPS_RelativeHumidity_IsbL-0600_LatLon0.15_PT048H.grib2 2026-04-28 04:09 1.0M
20260428T00Z_MSC_GDPS_RelativeHumidity_IsbL-0650_LatLon0.15_PT048H.grib2 2026-04-28 04:09 1.1M
20260428T00Z_MSC_GDPS_RelativeHumidity_IsbL-0700_LatLon0.15_PT048H.grib2 2026-04-28 04:09 1.1M
20260428T00Z_MSC_GDPS_RelativeHumidity_IsbL-0750_LatLon0.15_PT048H.grib2 2026-04-28 04:09 1.2M
20260428T00Z_MSC_GDPS_RelativeHumidity_IsbL-0800_LatLon0.15_PT048H.grib2 2026-04-28 04:09 1.2M
20260428T00Z_MSC_GDPS_RelativeHumidity_IsbL-0850_LatLon0.15_PT048H.grib2 2026-04-28 04:09 1.3M
20260428T00Z_MSC_GDPS_RelativeHumidity_IsbL-0875_LatLon0.15_PT048H.grib2 2026-04-28 04:09 1.3M
20260428T00Z_MSC_GDPS_RelativeHumidity_IsbL-0900_LatLon0.15_PT048H.grib2 2026-04-28 04:09 1.2M
20260428T00Z_MSC_GDPS_RelativeHumidity_IsbL-0925_LatLon0.15_PT048H.grib2 2026-04-28 04:09 1.2M
20260428T00Z_MSC_GDPS_RelativeHumidity_IsbL-0950_LatLon0.15_PT048H.grib2 2026-04-28 04:09 1.2M
20260428T00Z_MSC_GDPS_RelativeHumidity_IsbL-0970_LatLon0.15_PT048H.grib2 2026-04-28 04:09 1.2M
20260428T00Z_MSC_GDPS_RelativeHumidity_IsbL-0985_LatLon0.15_PT048H.grib2 2026-04-28 04:09 1.1M
20260428T00Z_MSC_GDPS_RelativeHumidity_IsbL-1000_LatLon0.15_PT048H.grib2 2026-04-28 04:09 1.1M
20260428T00Z_MSC_GDPS_RelativeHumidity_IsbL-1015_LatLon0.15_PT048H.grib2 2026-04-28 04:09 1.0M
20260428T00Z_MSC_GDPS_RelativeVorticity_IsbL-0200_LatLon0.15_PT048H.grib2 2026-04-28 04:09 1.2M
20260428T00Z_MSC_GDPS_RelativeVorticity_IsbL-0250_LatLon0.15_PT048H.grib2 2026-04-28 04:09 1.3M
20260428T00Z_MSC_GDPS_RelativeVorticity_IsbL-0500_LatLon0.15_PT048H.grib2 2026-04-28 04:09 1.5M
20260428T00Z_MSC_GDPS_RelativeVorticity_IsbL-0700_LatLon0.15_PT048H.grib2 2026-04-28 04:09 1.3M
20260428T00Z_MSC_GDPS_RelativeVorticity_IsbL-0850_LatLon0.15_PT048H.grib2 2026-04-28 04:09 1.6M
20260428T00Z_MSC_GDPS_Runoff-Accum_Sfc_LatLon0.15_PT048H.grib2 2026-04-28 04:09 126K
20260428T00Z_MSC_GDPS_SensibleHeatNetFlux_Sfc_LatLon0.15_PT048H.grib2 2026-04-28 04:09 602K
20260428T00Z_MSC_GDPS_ShowalterIndex_IsbL-0500_LatLon0.15_PT048H.grib2 2026-04-28 04:09 6.2M
20260428T00Z_MSC_GDPS_Snow-Accum12h_Sfc_LatLon0.15_PT048H.grib2 2026-04-28 04:09 1.5M
20260428T00Z_MSC_GDPS_Snow-Accum1h_Sfc_LatLon0.15_PT048H.grib2 2026-04-28 04:09 1.1M
20260428T00Z_MSC_GDPS_Snow-Accum24h_Sfc_LatLon0.15_PT048H.grib2 2026-04-28 04:09 1.6M
20260428T00Z_MSC_GDPS_Snow-Accum3h_Sfc_LatLon0.15_PT048H.grib2 2026-04-28 04:09 1.1M
20260428T00Z_MSC_GDPS_Snow-Accum6h_Sfc_LatLon0.15_PT048H.grib2 2026-04-28 04:09 1.4M
20260428T00Z_MSC_GDPS_Snow-Accum_Sfc_LatLon0.15_PT048H.grib2 2026-04-28 04:09 2.0M
20260428T00Z_MSC_GDPS_SnowDensity_Sfc_LatLon0.15_PT048H.grib2 2026-04-28 04:09 266K
20260428T00Z_MSC_GDPS_SnowDepth_Sfc_LatLon0.15_PT048H.grib2 2026-04-28 04:09 1.7M
20260428T00Z_MSC_GDPS_SoilTemp_DBS-0to10cm_LatLon0.15_PT048H.grib2 2026-04-28 04:09 500K
20260428T00Z_MSC_GDPS_SoilTemp_Sfc_LatLon0.15_PT048H.grib2 2026-04-28 04:09 557K
20260428T00Z_MSC_GDPS_SoilVolumetricIceContent_Sfc_LatLon0.15_PT048H.grib2 2026-04-28 04:09 208K
20260428T00Z_MSC_GDPS_SoilVolumetricWaterContent_DBS-0to10cm_LatLon0.15_PT048H.grib2 2026-04-28 04:09 581K
20260428T00Z_MSC_GDPS_SoilVolumetricWaterContent_DBS-0to1cm_LatLon0.15_PT048H.grib2 2026-04-28 04:09 648K
20260428T00Z_MSC_GDPS_SpecificHumidity_AGL-120m_LatLon0.15_PT048H.grib2 2026-04-28 04:09 1.1M
20260428T00Z_MSC_GDPS_SpecificHumidity_AGL-2m_LatLon0.15_PT048H.grib2 2026-04-28 04:09 1.2M
20260428T00Z_MSC_GDPS_SpecificHumidity_AGL-40m_LatLon0.15_PT048H.grib2 2026-04-28 04:09 1.1M
20260428T00Z_MSC_GDPS_SpecificHumidity_AGL-80m_LatLon0.15_PT048H.grib2 2026-04-28 04:09 1.1M
20260428T00Z_MSC_GDPS_SpecificHumidity_IsbL-0001_LatLon0.15_PT048H.grib2 2026-04-28 04:09 1.3M
20260428T00Z_MSC_GDPS_SpecificHumidity_IsbL-0005_LatLon0.15_PT048H.grib2 2026-04-28 04:09 1.2M
20260428T00Z_MSC_GDPS_SpecificHumidity_IsbL-0010_LatLon0.15_PT048H.grib2 2026-04-28 04:09 1.3M
20260428T00Z_MSC_GDPS_SpecificHumidity_IsbL-0020_LatLon0.15_PT048H.grib2 2026-04-28 04:09 1.4M
20260428T00Z_MSC_GDPS_SpecificHumidity_IsbL-0030_LatLon0.15_PT048H.grib2 2026-04-28 04:09 1.3M
20260428T00Z_MSC_GDPS_SpecificHumidity_IsbL-0050_LatLon0.15_PT048H.grib2 2026-04-28 04:09 1.4M
20260428T00Z_MSC_GDPS_SpecificHumidity_IsbL-0100_LatLon0.15_PT048H.grib2 2026-04-28 04:09 1.1M
20260428T00Z_MSC_GDPS_SpecificHumidity_IsbL-0150_LatLon0.15_PT048H.grib2 2026-04-28 04:09 1.2M
20260428T00Z_MSC_GDPS_SpecificHumidity_IsbL-0175_LatLon0.15_PT048H.grib2 2026-04-28 04:09 1.3M
20260428T00Z_MSC_GDPS_SpecificHumidity_IsbL-0200_LatLon0.15_PT048H.grib2 2026-04-28 04:09 1.3M
20260428T00Z_MSC_GDPS_SpecificHumidity_IsbL-0225_LatLon0.15_PT048H.grib2 2026-04-28 04:09 1.3M
20260428T00Z_MSC_GDPS_SpecificHumidity_IsbL-0250_LatLon0.15_PT048H.grib2 2026-04-28 04:09 1.4M
20260428T00Z_MSC_GDPS_SpecificHumidity_IsbL-0275_LatLon0.15_PT048H.grib2 2026-04-28 04:09 1.3M
20260428T00Z_MSC_GDPS_SpecificHumidity_IsbL-0300_LatLon0.15_PT048H.grib2 2026-04-28 04:09 1.5M
20260428T00Z_MSC_GDPS_SpecificHumidity_IsbL-0350_LatLon0.15_PT048H.grib2 2026-04-28 04:09 1.5M
20260428T00Z_MSC_GDPS_SpecificHumidity_IsbL-0400_LatLon0.15_PT048H.grib2 2026-04-28 04:09 1.4M
20260428T00Z_MSC_GDPS_SpecificHumidity_IsbL-0450_LatLon0.15_PT048H.grib2 2026-04-28 04:09 1.6M
20260428T00Z_MSC_GDPS_SpecificHumidity_IsbL-0500_LatLon0.15_PT048H.grib2 2026-04-28 04:09 1.4M
20260428T00Z_MSC_GDPS_SpecificHumidity_IsbL-0550_LatLon0.15_PT048H.grib2 2026-04-28 04:09 1.6M
20260428T00Z_MSC_GDPS_SpecificHumidity_IsbL-0600_LatLon0.15_PT048H.grib2 2026-04-28 04:09 1.7M
20260428T00Z_MSC_GDPS_SpecificHumidity_IsbL-0650_LatLon0.15_PT048H.grib2 2026-04-28 04:09 1.5M
20260428T00Z_MSC_GDPS_SpecificHumidity_IsbL-0700_LatLon0.15_PT048H.grib2 2026-04-28 04:09 1.6M
20260428T00Z_MSC_GDPS_SpecificHumidity_IsbL-0750_LatLon0.15_PT048H.grib2 2026-04-28 04:09 1.7M
20260428T00Z_MSC_GDPS_SpecificHumidity_IsbL-0800_LatLon0.15_PT048H.grib2 2026-04-28 04:09 1.8M
20260428T00Z_MSC_GDPS_SpecificHumidity_IsbL-0850_LatLon0.15_PT048H.grib2 2026-04-28 04:09 1.9M
20260428T00Z_MSC_GDPS_SpecificHumidity_IsbL-0875_LatLon0.15_PT048H.grib2 2026-04-28 04:09 1.9M
20260428T00Z_MSC_GDPS_SpecificHumidity_IsbL-0900_LatLon0.15_PT048H.grib2 2026-04-28 04:09 1.9M
20260428T00Z_MSC_GDPS_SpecificHumidity_IsbL-0925_LatLon0.15_PT048H.grib2 2026-04-28 04:09 1.9M
20260428T00Z_MSC_GDPS_SpecificHumidity_IsbL-0950_LatLon0.15_PT048H.grib2 2026-04-28 04:09 1.5M
20260428T00Z_MSC_GDPS_SpecificHumidity_IsbL-0970_LatLon0.15_PT048H.grib2 2026-04-28 04:09 1.5M
20260428T00Z_MSC_GDPS_SpecificHumidity_IsbL-0985_LatLon0.15_PT048H.grib2 2026-04-28 04:09 1.5M
20260428T00Z_MSC_GDPS_SpecificHumidity_IsbL-1000_LatLon0.15_PT048H.grib2 2026-04-28 04:09 1.5M
20260428T00Z_MSC_GDPS_SpecificHumidity_IsbL-1015_LatLon0.15_PT048H.grib2 2026-04-28 04:09 1.4M
20260428T00Z_MSC_GDPS_SpecificHumidity_Sfc_LatLon0.15_PT048H.grib2 2026-04-28 04:09 625K
20260428T00Z_MSC_GDPS_Thickness_IsbL-0850to0700_LatLon0.15_PT048H.grib2 2026-04-28 04:09 468K
20260428T00Z_MSC_GDPS_Thickness_IsbL-1000to0500_LatLon0.15_PT048H.grib2 2026-04-28 04:09 374K
20260428T00Z_MSC_GDPS_Thickness_IsbL-1000to0850_LatLon0.15_PT048H.grib2 2026-04-28 04:09 486K
20260428T00Z_MSC_GDPS_TotalCloudCover_Sfc_LatLon0.15_PT048H.grib2 2026-04-28 04:09 825K
20260428T00Z_MSC_GDPS_TotalTotalsIndex_Sfc_LatLon0.15_PT048H.grib2 2026-04-28 04:09 6.2M
20260428T00Z_MSC_GDPS_UVIndex-ClearSky_Sfc_LatLon0.15_PT048H.grib2 2026-04-28 04:52 1.0M
20260428T00Z_MSC_GDPS_UVIndex_Sfc_LatLon0.15_PT048H.grib2 2026-04-28 04:52 1.5M
20260428T00Z_MSC_GDPS_UpwardLongwaveRadiationFlux_NTAtm_LatLon0.15_PT048H.grib2 2026-04-28 04:09 1.1M
20260428T00Z_MSC_GDPS_VerticalVelocity_IsbL-0200_LatLon0.15_PT048H.grib2 2026-04-28 04:09 1.2M
20260428T00Z_MSC_GDPS_VerticalVelocity_IsbL-0250_LatLon0.15_PT048H.grib2 2026-04-28 04:09 1.0M
20260428T00Z_MSC_GDPS_VerticalVelocity_IsbL-0500_LatLon0.15_PT048H.grib2 2026-04-28 04:09 1.0M
20260428T00Z_MSC_GDPS_VerticalVelocity_IsbL-0600_LatLon0.15_PT048H.grib2 2026-04-28 04:09 1.1M
20260428T00Z_MSC_GDPS_VerticalVelocity_IsbL-0700_LatLon0.15_PT048H.grib2 2026-04-28 04:09 1.1M
20260428T00Z_MSC_GDPS_VerticalVelocity_IsbL-0850_LatLon0.15_PT048H.grib2 2026-04-28 04:09 1.6M
20260428T00Z_MSC_GDPS_WindChill_Sfc_LatLon0.15_PT048H.grib2 2026-04-28 04:09 5.3M
20260428T00Z_MSC_GDPS_WindDir_AGL-10m_LatLon0.15_PT048H.grib2 2026-04-28 04:09 1.3M
20260428T00Z_MSC_GDPS_WindDir_AGL-120m_LatLon0.15_PT048H.grib2 2026-04-28 04:09 1.4M
20260428T00Z_MSC_GDPS_WindDir_AGL-40m_LatLon0.15_PT048H.grib2 2026-04-28 04:09 1.4M
20260428T00Z_MSC_GDPS_WindDir_AGL-80m_LatLon0.15_PT048H.grib2 2026-04-28 04:09 1.4M
20260428T00Z_MSC_GDPS_WindDir_IsbL-0001_LatLon0.15_PT048H.grib2 2026-04-28 04:09 689K
20260428T00Z_MSC_GDPS_WindDir_IsbL-0005_LatLon0.15_PT048H.grib2 2026-04-28 04:09 796K
20260428T00Z_MSC_GDPS_WindDir_IsbL-0010_LatLon0.15_PT048H.grib2 2026-04-28 04:09 849K
20260428T00Z_MSC_GDPS_WindDir_IsbL-0020_LatLon0.15_PT048H.grib2 2026-04-28 04:09 951K
20260428T00Z_MSC_GDPS_WindDir_IsbL-0030_LatLon0.15_PT048H.grib2 2026-04-28 04:09 932K
20260428T00Z_MSC_GDPS_WindDir_IsbL-0050_LatLon0.15_PT048H.grib2 2026-04-28 04:09 943K
20260428T00Z_MSC_GDPS_WindDir_IsbL-0100_LatLon0.15_PT048H.grib2 2026-04-28 04:09 1.0M
20260428T00Z_MSC_GDPS_WindDir_IsbL-0150_LatLon0.15_PT048H.grib2 2026-04-28 04:09 1.0M
20260428T00Z_MSC_GDPS_WindDir_IsbL-0175_LatLon0.15_PT048H.grib2 2026-04-28 04:09 1.1M
20260428T00Z_MSC_GDPS_WindDir_IsbL-0200_LatLon0.15_PT048H.grib2 2026-04-28 04:09 1.1M
20260428T00Z_MSC_GDPS_WindDir_IsbL-0225_LatLon0.15_PT048H.grib2 2026-04-28 04:09 1.1M
20260428T00Z_MSC_GDPS_WindDir_IsbL-0250_LatLon0.15_PT048H.grib2 2026-04-28 04:09 1.1M
20260428T00Z_MSC_GDPS_WindDir_IsbL-0275_LatLon0.15_PT048H.grib2 2026-04-28 04:09 1.2M
20260428T00Z_MSC_GDPS_WindDir_IsbL-0300_LatLon0.15_PT048H.grib2 2026-04-28 04:09 1.2M
20260428T00Z_MSC_GDPS_WindDir_IsbL-0350_LatLon0.15_PT048H.grib2 2026-04-28 04:09 1.2M
20260428T00Z_MSC_GDPS_WindDir_IsbL-0400_LatLon0.15_PT048H.grib2 2026-04-28 04:09 1.2M
20260428T00Z_MSC_GDPS_WindDir_IsbL-0450_LatLon0.15_PT048H.grib2 2026-04-28 04:09 1.3M
20260428T00Z_MSC_GDPS_WindDir_IsbL-0500_LatLon0.15_PT048H.grib2 2026-04-28 04:09 1.3M
20260428T00Z_MSC_GDPS_WindDir_IsbL-0550_LatLon0.15_PT048H.grib2 2026-04-28 04:09 1.4M
20260428T00Z_MSC_GDPS_WindDir_IsbL-0600_LatLon0.15_PT048H.grib2 2026-04-28 04:09 1.4M
20260428T00Z_MSC_GDPS_WindDir_IsbL-0650_LatLon0.15_PT048H.grib2 2026-04-28 04:09 1.5M
20260428T00Z_MSC_GDPS_WindDir_IsbL-0700_LatLon0.15_PT048H.grib2 2026-04-28 04:09 1.6M
20260428T00Z_MSC_GDPS_WindDir_IsbL-0750_LatLon0.15_PT048H.grib2 2026-04-28 04:09 1.7M
20260428T00Z_MSC_GDPS_WindDir_IsbL-0800_LatLon0.15_PT048H.grib2 2026-04-28 04:09 1.8M
20260428T00Z_MSC_GDPS_WindDir_IsbL-0850_LatLon0.15_PT048H.grib2 2026-04-28 04:09 1.9M
20260428T00Z_MSC_GDPS_WindDir_IsbL-0875_LatLon0.15_PT048H.grib2 2026-04-28 04:09 2.0M
20260428T00Z_MSC_GDPS_WindDir_IsbL-0900_LatLon0.15_PT048H.grib2 2026-04-28 04:09 2.0M
20260428T00Z_MSC_GDPS_WindDir_IsbL-0925_LatLon0.15_PT048H.grib2 2026-04-28 04:09 2.0M
20260428T00Z_MSC_GDPS_WindDir_IsbL-0950_LatLon0.15_PT048H.grib2 2026-04-28 04:09 2.0M
20260428T00Z_MSC_GDPS_WindDir_IsbL-0970_LatLon0.15_PT048H.grib2 2026-04-28 04:09 2.0M
20260428T00Z_MSC_GDPS_WindDir_IsbL-0985_LatLon0.15_PT048H.grib2 2026-04-28 04:09 2.0M
20260428T00Z_MSC_GDPS_WindDir_IsbL-1000_LatLon0.15_PT048H.grib2 2026-04-28 04:09 2.1M
20260428T00Z_MSC_GDPS_WindDir_IsbL-1015_LatLon0.15_PT048H.grib2 2026-04-28 04:09 2.1M
20260428T00Z_MSC_GDPS_WindGust-Max_AGL-10m_LatLon0.15_PT048H.grib2 2026-04-28 04:09 2.2M
20260428T00Z_MSC_GDPS_WindGust-Min_AGL-10m_LatLon0.15_PT048H.grib2 2026-04-28 04:09 2.1M
20260428T00Z_MSC_GDPS_WindGust_AGL-10m_LatLon0.15_PT048H.grib2 2026-04-28 04:09 2.1M
20260428T00Z_MSC_GDPS_WindSpeed_AGL-10m_LatLon0.15_PT048H.grib2 2026-04-28 04:09 1.1M
20260428T00Z_MSC_GDPS_WindSpeed_AGL-120m_LatLon0.15_PT048H.grib2 2026-04-28 04:09 1.3M
20260428T00Z_MSC_GDPS_WindSpeed_AGL-40m_LatLon0.15_PT048H.grib2 2026-04-28 04:09 1.3M
20260428T00Z_MSC_GDPS_WindSpeed_AGL-80m_LatLon0.15_PT048H.grib2 2026-04-28 04:09 1.3M
20260428T00Z_MSC_GDPS_WindSpeed_IsbL-0001_LatLon0.15_PT048H.grib2 2026-04-28 04:09 645K
20260428T00Z_MSC_GDPS_WindSpeed_IsbL-0005_LatLon0.15_PT048H.grib2 2026-04-28 04:09 696K
20260428T00Z_MSC_GDPS_WindSpeed_IsbL-0010_LatLon0.15_PT048H.grib2 2026-04-28 04:09 632K
20260428T00Z_MSC_GDPS_WindSpeed_IsbL-0020_LatLon0.15_PT048H.grib2 2026-04-28 04:09 667K
20260428T00Z_MSC_GDPS_WindSpeed_IsbL-0030_LatLon0.15_PT048H.grib2 2026-04-28 04:09 866K
20260428T00Z_MSC_GDPS_WindSpeed_IsbL-0050_LatLon0.15_PT048H.grib2 2026-04-28 04:09 911K
20260428T00Z_MSC_GDPS_WindSpeed_IsbL-0100_LatLon0.15_PT048H.grib2 2026-04-28 04:09 1.1M
20260428T00Z_MSC_GDPS_WindSpeed_IsbL-0150_LatLon0.15_PT048H.grib2 2026-04-28 04:09 1.0M
20260428T00Z_MSC_GDPS_WindSpeed_IsbL-0175_LatLon0.15_PT048H.grib2 2026-04-28 04:09 1.0M
20260428T00Z_MSC_GDPS_WindSpeed_IsbL-0200_LatLon0.15_PT048H.grib2 2026-04-28 04:09 1.1M
20260428T00Z_MSC_GDPS_WindSpeed_IsbL-0225_LatLon0.15_PT048H.grib2 2026-04-28 04:09 1.1M
20260428T00Z_MSC_GDPS_WindSpeed_IsbL-0250_LatLon0.15_PT048H.grib2 2026-04-28 04:09 1.1M
20260428T00Z_MSC_GDPS_WindSpeed_IsbL-0275_LatLon0.15_PT048H.grib2 2026-04-28 04:09 1.1M
20260428T00Z_MSC_GDPS_WindSpeed_IsbL-0300_LatLon0.15_PT048H.grib2 2026-04-28 04:09 1.1M
20260428T00Z_MSC_GDPS_WindSpeed_IsbL-0350_LatLon0.15_PT048H.grib2 2026-04-28 04:09 1.1M
20260428T00Z_MSC_GDPS_WindSpeed_IsbL-0400_LatLon0.15_PT048H.grib2 2026-04-28 04:09 1.1M
20260428T00Z_MSC_GDPS_WindSpeed_IsbL-0450_LatLon0.15_PT048H.grib2 2026-04-28 04:09 1.1M
20260428T00Z_MSC_GDPS_WindSpeed_IsbL-0500_LatLon0.15_PT048H.grib2 2026-04-28 04:09 1.1M
20260428T00Z_MSC_GDPS_WindSpeed_IsbL-0550_LatLon0.15_PT048H.grib2 2026-04-28 04:09 1.1M
20260428T00Z_MSC_GDPS_WindSpeed_IsbL-0600_LatLon0.15_PT048H.grib2 2026-04-28 04:09 1.1M
20260428T00Z_MSC_GDPS_WindSpeed_IsbL-0650_LatLon0.15_PT048H.grib2 2026-04-28 04:09 1.4M
20260428T00Z_MSC_GDPS_WindSpeed_IsbL-0700_LatLon0.15_PT048H.grib2 2026-04-28 04:09 1.5M
20260428T00Z_MSC_GDPS_WindSpeed_IsbL-0750_LatLon0.15_PT048H.grib2 2026-04-28 04:09 1.5M
20260428T00Z_MSC_GDPS_WindSpeed_IsbL-0800_LatLon0.15_PT048H.grib2 2026-04-28 04:09 1.7M
20260428T00Z_MSC_GDPS_WindSpeed_IsbL-0850_LatLon0.15_PT048H.grib2 2026-04-28 04:09 1.7M
20260428T00Z_MSC_GDPS_WindSpeed_IsbL-0875_LatLon0.15_PT048H.grib2 2026-04-28 04:09 1.8M
20260428T00Z_MSC_GDPS_WindSpeed_IsbL-0900_LatLon0.15_PT048H.grib2 2026-04-28 04:09 1.8M
20260428T00Z_MSC_GDPS_WindSpeed_IsbL-0925_LatLon0.15_PT048H.grib2 2026-04-28 04:09 1.8M
20260428T00Z_MSC_GDPS_WindSpeed_IsbL-0950_LatLon0.15_PT048H.grib2 2026-04-28 04:09 1.9M
20260428T00Z_MSC_GDPS_WindSpeed_IsbL-0970_LatLon0.15_PT048H.grib2 2026-04-28 04:09 1.9M
20260428T00Z_MSC_GDPS_WindSpeed_IsbL-0985_LatLon0.15_PT048H.grib2 2026-04-28 04:09 1.9M
20260428T00Z_MSC_GDPS_WindSpeed_IsbL-1000_LatLon0.15_PT048H.grib2 2026-04-28 04:09 1.9M
20260428T00Z_MSC_GDPS_WindSpeed_IsbL-1015_LatLon0.15_PT048H.grib2 2026-04-28 04:09 1.8M
20260428T00Z_MSC_GDPS_WindU_AGL-10m_LatLon0.15_PT048H.grib2 2026-04-28 04:09 1.3M
20260428T00Z_MSC_GDPS_WindU_AGL-120m_LatLon0.15_PT048H.grib2 2026-04-28 04:09 1.0M
20260428T00Z_MSC_GDPS_WindU_AGL-40m_LatLon0.15_PT048H.grib2 2026-04-28 04:09 1.0M
20260428T00Z_MSC_GDPS_WindU_AGL-80m_LatLon0.15_PT048H.grib2 2026-04-28 04:09 1.0M
20260428T00Z_MSC_GDPS_WindU_IsbL-0001_LatLon0.15_PT048H.grib2 2026-04-28 04:09 647K
20260428T00Z_MSC_GDPS_WindU_IsbL-0005_LatLon0.15_PT048H.grib2 2026-04-28 04:09 696K
20260428T00Z_MSC_GDPS_WindU_IsbL-0010_LatLon0.15_PT048H.grib2 2026-04-28 04:09 708K
20260428T00Z_MSC_GDPS_WindU_IsbL-0020_LatLon0.15_PT048H.grib2 2026-04-28 04:09 736K
20260428T00Z_MSC_GDPS_WindU_IsbL-0030_LatLon0.15_PT048H.grib2 2026-04-28 04:09 743K
20260428T00Z_MSC_GDPS_WindU_IsbL-0050_LatLon0.15_PT048H.grib2 2026-04-28 04:09 774K
20260428T00Z_MSC_GDPS_WindU_IsbL-0100_LatLon0.15_PT048H.grib2 2026-04-28 04:09 926K
20260428T00Z_MSC_GDPS_WindU_IsbL-0150_LatLon0.15_PT048H.grib2 2026-04-28 04:09 1.0M
20260428T00Z_MSC_GDPS_WindU_IsbL-0175_LatLon0.15_PT048H.grib2 2026-04-28 04:09 1.0M
20260428T00Z_MSC_GDPS_WindU_IsbL-0200_LatLon0.15_PT048H.grib2 2026-04-28 04:09 852K
20260428T00Z_MSC_GDPS_WindU_IsbL-0225_LatLon0.15_PT048H.grib2 2026-04-28 04:09 858K
20260428T00Z_MSC_GDPS_WindU_IsbL-0250_LatLon0.15_PT048H.grib2 2026-04-28 04:09 857K
20260428T00Z_MSC_GDPS_WindU_IsbL-0275_LatLon0.15_PT048H.grib2 2026-04-28 04:09 884K
20260428T00Z_MSC_GDPS_WindU_IsbL-0300_LatLon0.15_PT048H.grib2 2026-04-28 04:09 874K
20260428T00Z_MSC_GDPS_WindU_IsbL-0350_LatLon0.15_PT048H.grib2 2026-04-28 04:09 889K
20260428T00Z_MSC_GDPS_WindU_IsbL-0400_LatLon0.15_PT048H.grib2 2026-04-28 04:09 892K
20260428T00Z_MSC_GDPS_WindU_IsbL-0450_LatLon0.15_PT048H.grib2 2026-04-28 04:09 893K
20260428T00Z_MSC_GDPS_WindU_IsbL-0500_LatLon0.15_PT048H.grib2 2026-04-28 04:09 1.1M
20260428T00Z_MSC_GDPS_WindU_IsbL-0550_LatLon0.15_PT048H.grib2 2026-04-28 04:09 1.1M
20260428T00Z_MSC_GDPS_WindU_IsbL-0600_LatLon0.15_PT048H.grib2 2026-04-28 04:09 1.1M
20260428T00Z_MSC_GDPS_WindU_IsbL-0650_LatLon0.15_PT048H.grib2 2026-04-28 04:09 1.2M
20260428T00Z_MSC_GDPS_WindU_IsbL-0700_LatLon0.15_PT048H.grib2 2026-04-28 04:09 1.2M
20260428T00Z_MSC_GDPS_WindU_IsbL-0750_LatLon0.15_PT048H.grib2 2026-04-28 04:09 1.3M
20260428T00Z_MSC_GDPS_WindU_IsbL-0800_LatLon0.15_PT048H.grib2 2026-04-28 04:09 1.3M
20260428T00Z_MSC_GDPS_WindU_IsbL-0850_LatLon0.15_PT048H.grib2 2026-04-28 04:09 1.4M
20260428T00Z_MSC_GDPS_WindU_IsbL-0875_LatLon0.15_PT048H.grib2 2026-04-28 04:09 1.5M
20260428T00Z_MSC_GDPS_WindU_IsbL-0900_LatLon0.15_PT048H.grib2 2026-04-28 04:09 1.5M
20260428T00Z_MSC_GDPS_WindU_IsbL-0925_LatLon0.15_PT048H.grib2 2026-04-28 04:09 1.5M
20260428T00Z_MSC_GDPS_WindU_IsbL-0950_LatLon0.15_PT048H.grib2 2026-04-28 04:09 1.4M
20260428T00Z_MSC_GDPS_WindU_IsbL-0970_LatLon0.15_PT048H.grib2 2026-04-28 04:09 1.4M
20260428T00Z_MSC_GDPS_WindU_IsbL-0985_LatLon0.15_PT048H.grib2 2026-04-28 04:09 1.4M
20260428T00Z_MSC_GDPS_WindU_IsbL-1000_LatLon0.15_PT048H.grib2 2026-04-28 04:09 1.4M
20260428T00Z_MSC_GDPS_WindU_IsbL-1015_LatLon0.15_PT048H.grib2 2026-04-28 04:09 1.3M
20260428T00Z_MSC_GDPS_WindV_AGL-10m_LatLon0.15_PT048H.grib2 2026-04-28 04:09 1.3M
20260428T00Z_MSC_GDPS_WindV_AGL-120m_LatLon0.15_PT048H.grib2 2026-04-28 04:09 1.0M
20260428T00Z_MSC_GDPS_WindV_AGL-40m_LatLon0.15_PT048H.grib2 2026-04-28 04:09 1.0M
20260428T00Z_MSC_GDPS_WindV_AGL-80m_LatLon0.15_PT048H.grib2 2026-04-28 04:09 1.0M
20260428T00Z_MSC_GDPS_WindV_IsbL-0001_LatLon0.15_PT048H.grib2 2026-04-28 04:09 712K
20260428T00Z_MSC_GDPS_WindV_IsbL-0005_LatLon0.15_PT048H.grib2 2026-04-28 04:09 769K
20260428T00Z_MSC_GDPS_WindV_IsbL-0010_LatLon0.15_PT048H.grib2 2026-04-28 04:09 800K
20260428T00Z_MSC_GDPS_WindV_IsbL-0020_LatLon0.15_PT048H.grib2 2026-04-28 04:09 853K
20260428T00Z_MSC_GDPS_WindV_IsbL-0030_LatLon0.15_PT048H.grib2 2026-04-28 04:09 855K
20260428T00Z_MSC_GDPS_WindV_IsbL-0050_LatLon0.15_PT048H.grib2 2026-04-28 04:09 909K
20260428T00Z_MSC_GDPS_WindV_IsbL-0100_LatLon0.15_PT048H.grib2 2026-04-28 04:09 1.1M
20260428T00Z_MSC_GDPS_WindV_IsbL-0150_LatLon0.15_PT048H.grib2 2026-04-28 04:09 1.0M
20260428T00Z_MSC_GDPS_WindV_IsbL-0175_LatLon0.15_PT048H.grib2 2026-04-28 04:09 1.0M
20260428T00Z_MSC_GDPS_WindV_IsbL-0200_LatLon0.15_PT048H.grib2 2026-04-28 04:09 853K
20260428T00Z_MSC_GDPS_WindV_IsbL-0225_LatLon0.15_PT048H.grib2 2026-04-28 04:09 916K
20260428T00Z_MSC_GDPS_WindV_IsbL-0250_LatLon0.15_PT048H.grib2 2026-04-28 04:09 912K
20260428T00Z_MSC_GDPS_WindV_IsbL-0275_LatLon0.15_PT048H.grib2 2026-04-28 04:09 936K
20260428T00Z_MSC_GDPS_WindV_IsbL-0300_LatLon0.15_PT048H.grib2 2026-04-28 04:09 926K
20260428T00Z_MSC_GDPS_WindV_IsbL-0350_LatLon0.15_PT048H.grib2 2026-04-28 04:09 877K
20260428T00Z_MSC_GDPS_WindV_IsbL-0400_LatLon0.15_PT048H.grib2 2026-04-28 04:09 879K
20260428T00Z_MSC_GDPS_WindV_IsbL-0450_LatLon0.15_PT048H.grib2 2026-04-28 04:09 1.1M
20260428T00Z_MSC_GDPS_WindV_IsbL-0500_LatLon0.15_PT048H.grib2 2026-04-28 04:09 1.1M
20260428T00Z_MSC_GDPS_WindV_IsbL-0550_LatLon0.15_PT048H.grib2 2026-04-28 04:09 1.1M
20260428T00Z_MSC_GDPS_WindV_IsbL-0600_LatLon0.15_PT048H.grib2 2026-04-28 04:09 1.1M
20260428T00Z_MSC_GDPS_WindV_IsbL-0650_LatLon0.15_PT048H.grib2 2026-04-28 04:09 1.2M
20260428T00Z_MSC_GDPS_WindV_IsbL-0700_LatLon0.15_PT048H.grib2 2026-04-28 04:09 1.2M
20260428T00Z_MSC_GDPS_WindV_IsbL-0750_LatLon0.15_PT048H.grib2 2026-04-28 04:09 1.2M
20260428T00Z_MSC_GDPS_WindV_IsbL-0800_LatLon0.15_PT048H.grib2 2026-04-28 04:09 1.3M
20260428T00Z_MSC_GDPS_WindV_IsbL-0850_LatLon0.15_PT048H.grib2 2026-04-28 04:09 1.4M
20260428T00Z_MSC_GDPS_WindV_IsbL-0875_LatLon0.15_PT048H.grib2 2026-04-28 04:09 1.4M
20260428T00Z_MSC_GDPS_WindV_IsbL-0900_LatLon0.15_PT048H.grib2 2026-04-28 04:09 1.5M
20260428T00Z_MSC_GDPS_WindV_IsbL-0925_LatLon0.15_PT048H.grib2 2026-04-28 04:09 1.5M
20260428T00Z_MSC_GDPS_WindV_IsbL-0950_LatLon0.15_PT048H.grib2 2026-04-28 04:09 1.4M
20260428T00Z_MSC_GDPS_WindV_IsbL-0970_LatLon0.15_PT048H.grib2 2026-04-28 04:09 1.4M
20260428T00Z_MSC_GDPS_WindV_IsbL-0985_LatLon0.15_PT048H.grib2 2026-04-28 04:09 1.4M
20260428T00Z_MSC_GDPS_WindV_IsbL-1000_LatLon0.15_PT048H.grib2 2026-04-28 04:09 1.4M
20260428T00Z_MSC_GDPS_WindV_IsbL-1015_LatLon0.15_PT048H.grib2 2026-04-28 04:09 1.3M